Hourly Data Report for September 26, 2010

IQALUIT CLIMATE
NUNAVUT

63°44'50.000" N
68°32'40.000" W
33.50 m
2402592
71321
XFB

Download Data

Hourly Data (September 2010)
Hourly Data Report for September 26, 2010
TIME
LST
Temp Definition
°C
Dew Point Definition
°C
Rel Hum Definition
%
Precip. Amount Definition
mm

Wind Dir Definition
10's deg

Wind Spd Definition
km/h
Visibility Definition
km
Stn Press Definition
kPa
Hmdx Definition


Wind Chill Definition


Weather Definition


00:00 1.4 0.3 92   35 2   100.56     LegendNANA
01:00 1.2 0.5 95   9 4   100.51     LegendNANA
02:00 0.9 0.8 99   12 7   100.44     LegendNANA
03:00 1.0 1.0 100   12 15   100.38     LegendNANA
04:00 1.3 1.1 99   13 17   100.32     LegendNANA
05:00 2.0 1.1 94   13 19   100.26     LegendNANA
06:00 2.3 1.5 94   12 19   100.22     LegendNANA
07:00 3.2 2.1 92   16 11   100.14     LegendNANA
08:00 3.2 2.3 94   15 11   100.07     LegendNANA
09:00 3.7 2.5 92   15 11   100.01     LegendNANA
10:00 4.2 2.8 91   14 17   99.94     LegendNANA
11:00 3.6 2.8 94   15 13   99.85     LegendNANA
12:00 3.6 2.8 94   16 19   99.76     LegendNANA
13:00 3.9 3.0 94   15 11   99.66     LegendNANA
14:00 4.5 3.3 92   13 11   99.55     LegendNANA
15:00 3.8 2.9 94   14 13   99.47     LegendNANA
16:00 3.6 3.2 97   16 20   99.33     LegendNANA
17:00 4.0 3.1 94   15 28   99.21     LegendNANA
18:00 3.8 3.0 95   14 30   99.07     LegendNANA
19:00 4.1 4.1 100   14 39   98.91     LegendNANA
20:00 4.1 4.1 100   14 39   98.75     LegendNANA
21:00 4.1 3.9 99   13 33   98.63     LegendNANA
22:00 4.1 3.3 95   14 30   98.54     LegendNANA
23:00 3.6 3.1 97   14 28   98.50     LegendNANA

Notes on Data Quality.

Legend

  • E = Estimated
  • M = Missing
  • NA = Not Available*
  • [empty] = Indicates an unobserved value
Date modified: